Regional Weather Roundup
Issued by NWS

Home | Current Version | Previous Version | Graphics & Text | Print | Product List | Glossary On
Versions: 1 2 3 4 5 6 7 8 9 10 11 12 13 14 15 16 17 18 19 20 21 22 23 24 25 26 27 28 29 30 31 32 33 34 35 36 37 38 39 40 41 42 43 44 45 46 47 48 49 50
000
ASUS43 KLOT 240209
RWRIL

ILLINOIS REGIONAL WEATHER ROUNDUP
NATIONAL WEATHER SERVICE CHICAGO/ROMEOVILLE IL
900 PM CDT SAT SEP 23 2017

NOTE: "FAIR" INDICATES FEW OR NO CLOUDS BELOW 12,000 FEET WITH NO
SIGNIFICANT WEATHER AND/OR OBSTRUCTIONS TO VISIBILITY.

* THESE STATIONS ARE NOT UNDER NWS QUALITY CONTROL. THEY ALSO MAY NOT
  REPORT WEATHER SUCH AS PRECIPITATION OR FOG.

ILZ001-002-007-009-015-016-024-240300-
NORTHWEST ILLINOIS

CITY           SKY/WX    TMP DP  RH WIND       PRES   REMARKS
MOLINE         CLEAR     78  63  59 SE8       30.00R HX  80
STERLING*      CLEAR     75  67  76 E5        30.03R
SAVANNA*       CLEAR     75  67  76 CALM      30.01S
$$

ILZ003-004-008-010-011-017-018-240300-
NORTH CENTRAL ILLINOIS

CITY           SKY/WX    TMP DP  RH WIND       PRES   REMARKS
ROCKFORD       CLEAR     77  65  66 SE3       30.04S
FREEPORT*      CLEAR     70  64  82 S3        30.05R
ROCHELLE*      CLEAR     73  64  75 SE5       30.05R
DE KALB*       CLEAR     78  64  61 SE7       30.06S
PERU*          CLEAR     79  62  55 SE8       30.04R HX  81
$$

ILZ005-006-012>014-019>023-240300-
NORTHEAST ILLINOIS

CITY           SKY/WX    TMP DP  RH WIND       PRES   REMARKS
CHICAGO-OHARE  CLEAR     83  65  54 E8        30.04S HX  85
CHICAGO-MIDWAY CLEAR     82  67  60 E7        30.05R HX  84
AURORA         CLEAR     78  65  63 SE7       30.05R HX  80
LANSING*       CLEAR     76  69  77 CALM      30.05S
JOLIET*        CLEAR     80  68  65 E5        30.05R HX  83
WAUKEGAN       CLEAR     71  68  90 CALM      30.05S
DUPAGE AIRPORT CLEAR     80  67  64 SE5       30.05R HX  82
KANKAKEE*      CLEAR     75  67  75 SE5       30.05S
WHEELING       CLEAR     80  68  66 SE5       30.05S HX  83
MORRIS*        CLEAR     81  64  56 SE5       30.03S HX  82
ROMEOVILLE*    CLEAR     79  67  65 E7        30.05S HX  81
NORTHERLY ISL    N/A     73  68  84 NW1         N/A
$$

LMZ740>746-240300-
SOUTHERN LAKE MICHIGAN

STATION/POSITION SKY/WX   TEMP    WIND        PRES    VSBY  WAVE
                          AIR SEA DIR/SP/G                  HT/PER
                          (F)     (DEG/KT/KT) (MB)    (MI)  (FT/S)
SOUTHERN BUOY              76 72  100/  4/  4 1017.6          0
WILMETTE HARBOR            74 72  140/  6/  8   N/A           1/ 2
HARRISON CRIB              75     170/  5/  6   N/A
BURNHAM HARBOR             72                   N/A
CALUMET HARBOR             76     100/  4/  7 1017.1R
BURNS HARBOR               80     100/  6/ 10 1017.9S
MICHIGAN CITY              79     110/  5/  6   N/A
MICHIGAN CITY 6N           76 73  100/  4/  6   N/A           0
ST. JOSEPH                 76 74  160/  4/  4 1017.8          0
$$

ILZ025>027-034>036-040-047-049-050-058-095>099-240300-
WEST-CENTRAL ILLINOIS

CITY           SKY/WX    TMP DP  RH WIND       PRES   REMARKS
QUINCY         CLEAR     75  61  61 SE5       30.00R
GALESBURG*     CLEAR     76  64  65 E3        30.02S
MACOMB*        CLEAR     69  64  81 CALM      30.03S
JACKSONVILLE*  CLEAR     72  59  64 SE3       30.01S
PITTSFIELD*    CLEAR     76  60  57 SE5       30.02S
$$

ILZ028>032-037-038-041>044-048-051>054-059>061-240300-
CENTRAL ILLINOIS

CITY           SKY/WX    TMP DP  RH WIND       PRES   REMARKS
PONTIAC        CLEAR     73  68  84 SE6       30.05R
BLOOMINGTON    CLEAR     77  64  64 SE6       30.05S
DECATUR        CLEAR     77  61  57 S7        30.03S
PEORIA         PTCLDY    82  63  52 SE5       30.02R HX  83
LACON*         CLEAR     79  62  56 SE5       30.01S HX  80
LINCOLN*       CLEAR     77  64  62 CALM      30.02S
SPRINGFIELD    CLEAR     75  62  64 CALM      30.02R
TAYLORVILLE    CLEAR     76  62  60 SE5       30.02S
$$

ILZ033-039-045-046-055>057-062-063-240300-
EAST-CENTRAL ILLINOIS

CITY           SKY/WX    TMP DP  RH WIND       PRES   REMARKS
CHAMPAIGN      CLEAR     76  63  64 E5        30.05R
RANTOUL*       CLEAR     78  68  70 SE3       30.05R HX  81
MATTOON        CLEAR     78  63  59 SE5       30.04R HX  80
PARIS*         CLEAR     74  63  67 SE5       30.06R
$$

ILZ079-100>102-240300-
SOUTHWEST ILLINOIS

CITY           SKY/WX    TMP DP  RH WIND       PRES   REMARKS
ALTON          CLEAR     75  63  64 SE7       30.01R
BELLEVILLE     CLEAR     77  63  61 CALM      30.00R
CAHOKIA*       PTCLDY    79  62  56 SE3       29.99R HX  80
SPARTA*        CLEAR     77  63  61 SE6       30.02R
$$

ILZ064>066-069>071-074>076-080>082-084>086-088>090-092>094-240300-
SOUTH-CENTRAL ILLINOIS

CITY           SKY/WX    TMP DP  RH WIND       PRES   REMARKS
CARBONDALE     CLEAR     73  66  78 E6        30.01R
CAIRO*         CLEAR     71  68  88 CALM      30.00R
EFFINGHAM*     CLEAR     74  62  64 E5        30.05R
MARION         CLEAR     81  63  54 E3        30.02S HX  82
MT. VERNON       N/A     75  61  61 E3        30.03R
CENTRALIA*     CLEAR     77  62  59 CALM      30.02R
SALEM*         CLEAR     79  59  49 CALM      30.03R HX  80
METROPOLIS*    PTCLDY    74  68  80 CALM      30.01S
$$

ILZ067-068-072-073-078-083-087-091-240300-
SOUTHEAST ILLINOIS

CITY           SKY/WX    TMP DP  RH WIND       PRES   REMARKS
LAWRENCEVILLE  CLEAR     76  66  71 E5        30.04S
FLORA*         CLEAR     73  62  69 E3        30.04R
FAIRFIELD*     CLEAR     72  60  66 CALM      30.02S
HARRISBURG*    CLEAR     76  63  63 E6        30.02S
ROBINSON*      CLEAR     67  64  88 CALM      30.05S
CARMI*         CLEAR     73  64  73 E6        30.02S
$$

ABBREVIATIONS USED IN REMARKS
   TC - TEMPERATURE IN CELSIUS
  WCI - WIND CHILL INDEX
   HX - HEAT INDEX
  VSB - VISIBILITY
$$




USA.gov is the U.S. government's official web portal to all federal, state and local government web resources and services.